Location: Gloden
(48.4833°N, 15.3167°E)
Time: 05:30:55
(UTC+00:00)

Cosmos 1110 Rocket - Pass Details

Date: 15 December 2019
Orbit: 752 x 782 km, 74.0° (Epoch: 24 January)

Event Time Altitude Azimuth Distance (km) Brightness Sun altitude
Rises 04:22:59 0° 198° (SSW) 3,199 7.1 -22.1°
Reaches altitude 10° 04:25:20 10° 198° (SSW) 2,275 6.4 -21.7°
Maximum altitude 04:30:30 83° 111° (ESE) 765 4.0 -20.9°
Drops below altitude 10° 04:35:41 10° 24° (NNE) 2,287 6.6 -20.1°
Sets 04:38:03 0° 24° (NNE) 3,216 7.4 -19.7°
